User: anonymous   Login
Location: Newark
(52.3735°N, 16.9806°E)
Time: 14:09:46
(UTC+00:00)
Language:

LO-87 - Orbit

View from above orbital plane
View from above orbital plane
View from above satellite
View from above satellite

Ground track
Ground track

The orbit data is extracted from the following two-line orbital elements,

1 41557U 16033B   21332.22601304  .00003327  00000-0  11500-3 0  9999
2 41557  97.3931  65.3463 0012877  20.8450   9.2856 15.30554694306570
Epoch (UTC): 28 November 2021 05:25:27
Eccentricity: 0.0012877
inclination: 97.3931°
perigee height: 465 km
apogee height: 483 km
right ascension of ascending node: 65.3463°
argument of perigee: 20.8450°
revolutions per day: 15.30554694
mean anomaly at epoch: 9.2856°
orbit number at epoch: 30657

The dashed part of the orbit path shows where the satellite is in the earth's shadow,  

DLR